Location: Breitenfeld
(46.8500°N, 15.6333°E)
Time: 06:35:02
(UTC+00:00)

Cosmos 2322 Rocket - Visible Passes

Search period start: 11 August 2020 00:00
Search period end: 21 August 2020 00:00
Orbit: 832 x 851 km, 71.0° (Epoch: 10 August)

Date Brightness Start Highest point End Pass type
(mag) Time Alt. Az. Time Alt. Az. Time Alt. Az.
11 Aug 3.6 19:31:27 10° N 19:36:13 26° NE 19:40:05 14° E visible
11 Aug 2.4 21:15:05 10° NNW 21:20:44 64° WSW 21:21:53 52° SSW visible
12 Aug 3.6 19:16:28 10° N 19:21:08 25° NE 19:25:22 12° E visible
12 Aug 2.3 21:00:02 10° NNW 21:05:42 67° WSW 21:07:10 48° S visible
13 Aug 3.7 19:01:28 10° N 19:06:04 24° NE 19:10:39 10° E visible
13 Aug 2.3 20:45:00 10° NNW 20:50:41 70° WSW 20:52:29 44° S visible
13 Aug 4.6 22:32:37 10° W 22:33:38 10° W 22:34:18 10° W visible
14 Aug 3.7 18:46:28 10° N 18:51:00 23° NE 18:55:30 10° E visible
14 Aug 2.3 20:29:57 10° NNW 20:35:39 74° WSW 20:37:51 38° S visible
14 Aug 4.5 22:17:03 10° WNW 22:18:39 11° W 22:19:39 11° WSW visible
15 Aug 2.2 20:14:54 10° NNW 20:20:37 77° WSW 20:23:15 33° SSE visible
15 Aug 4.5 22:01:39 10° WNW 22:03:40 12° W 22:05:03 11° WSW visible
16 Aug 2.2 19:59:52 10° NNW 20:05:35 81° WSW 20:08:40 29° SSE visible
16 Aug 4.5 21:46:19 10° WNW 21:48:41 13° W 21:50:30 11° WSW visible
17 Aug 2.2 19:44:49 10° NNW 19:50:33 84° WSW 19:54:09 24° SSE visible
17 Aug 4.5 21:31:03 10° WNW 21:33:41 13° W 21:35:58 11° WSW visible
18 Aug 2.2 19:29:47 10° NNW 19:35:31 88° WSW 19:39:41 19° SSE visible
18 Aug 4.5 21:15:49 10° WNW 21:18:42 14° W 21:21:30 10° SW visible
19 Aug 2.2 19:14:44 10° NNW 19:20:29 89° ENE 19:25:15 15° SSE visible
19 Aug 4.5 21:00:37 10° WNW 21:03:42 15° W 21:06:49 10° SW visible
20 Aug 2.2 18:59:42 10° NNW 19:05:27 85° ENE 19:10:54 11° SSE visible
20 Aug 4.5 20:45:25 10° WNW 20:48:43 16° W 20:52:01 10° SW visible
